カタログに戻る

STARLINK-30493

運用中通信VLEO
NORAD 58116·PAYLOAD·🇺🇸 United States

打ち上げ Oct 21, 2023 から Vandenberg Space Force Base

Loading…

次のパス (今後24時間)

TLE

最新Source: CelesTrak SupGP

元期: Sep 15, 2026, 01:13 UTC

1 58116C 23161V   26258.05118056  .00021068  00000+0  62240-3 0  2584
2 58116  53.1606   5.2449 0001190  92.6042 277.9262 15.34382862    10

AllMySatでSTARLINK-30493をリアルタイム追跡

Download on the App Store